Weather History for CYMX - October, 2012

Change the Weather History Date:

Monday, October 8, 2012

  Actual Average Record
Temperature  
Mean Temperature 42 °F -  
Max Temperature 53 °F 56 °F 75 °F (2004)
Min Temperature 30 °F 38 °F 30 °F (1999)
Degree Days  
Heating Degree Days 24    
Moisture  
Dew Point 32 °F    
Average Humidity 75    
Maximum Humidity 100    
Minimum Humidity 41    
Precipitation  
Precipitation 0.00 in - - ()
Sea Level Pressure  
Sea Level Pressure 30.22 in    
Wind  
Wind Speed 2 mph ()    
Max Wind Speed 10 mph    
Max Gust Speed -    
Averages and records for this station are not official NWS values.
T = Trace of Precipitation, MM = Missing Value Source: Averaged Metar Reports

Daily Weather History Graph

Daily Weather History Graph

Search for Another Location

Airport or City:

Trip Planner

Search our weather history database for the weather conditions in past years. The results will help you decide how hot, cold, wet, or windy it might be!

Date:

Astronomy

Oct. 08, 2012 Rise Set
Actual Time 7:04 AM EDT 6:22 PM EDT
Civil Twilight 6:34 AM EDT 6:51 PM EDT
Nautical Twilight 5:59 AM EDT 7:26 PM EDT
Astronomical Twilight 5:25 AM EDT 8:00 PM EDT
Moon No Moon Rise 2:28 PM EDT (10/8)
Length of Visible Light 12h 17m
Length of Day
11h 18m
Waning Gibbous, 46% of the Moon is Illuminated
Oct 8
Waning Gibbous
Oct 15
New
Oct 21
First Quarter
Oct 29
Full
Nov 6
Last Quarter

Hourly Weather History & Observations

Time (EDT) Temp. Windchill Dew Point Humidity Pressure Visibility Wind Dir Wind Speed Gust Speed Precip Events Conditions
12:00 AM 39.2 °F - 33.8 °F 81% 30.09 in 25.0 mi Calm Calm - N/A   Mostly Cloudy
1:00 AM 39.2 °F - 35.6 °F 87% 30.12 in 25.0 mi Calm Calm - N/A   Scattered Clouds
2:00 AM 37.4 °F - 35.6 °F 93% 30.12 in 25.0 mi Calm Calm - N/A   Mostly Cloudy
3:00 AM 33.8 °F - 33.8 °F 100% - 25.0 mi Calm Calm - N/A   Scattered Clouds
4:00 AM 32.0 °F - 32.0 °F 100% 30.13 in 25.0 mi Calm Calm - N/A   Partly Cloudy
5:00 AM 32.0 °F - 32.0 °F 100% 30.14 in 25.0 mi Calm Calm - N/A   Partly Cloudy
6:00 AM 30.2 °F - 30.2 °F 100% 30.17 in 25.0 mi Calm Calm - N/A   Partly Cloudy
7:00 AM 30.2 °F 26.7 °F 30.2 °F 100% 30.19 in 25.0 mi WNW 3.5 mph - N/A   Partly Cloudy
8:00 AM 30.2 °F - 30.2 °F 100% 30.22 in 45.0 mi Calm Calm - N/A   Partly Cloudy
9:00 AM 39.2 °F 37.0 °F 32.0 °F 75% 30.24 in 45.0 mi North 3.5 mph - N/A   Scattered Clouds
10:00 AM 42.8 °F - 30.2 °F 61% 30.25 in 45.0 mi NNE 2.3 mph - N/A   Scattered Clouds
11:00 AM 46.4 °F 43.5 °F 32.0 °F 57% 30.25 in 45.0 mi South 5.8 mph - N/A   Scattered Clouds
12:00 PM 48.2 °F - 26.6 °F 43% 30.25 in 45.0 mi WSW 6.9 mph - N/A   Scattered Clouds
1:00 PM 51.8 °F - 28.4 °F 41% 30.25 in 45.0 mi WSW 6.9 mph - N/A   Scattered Clouds
2:00 PM 51.8 °F - 30.2 °F 44% 30.23 in 45.0 mi South 8.1 mph - N/A   Scattered Clouds
3:00 PM 51.8 °F - 28.4 °F 41% 30.24 in 45.0 mi WSW 8.1 mph - N/A   Partly Cloudy
4:00 PM 53.6 °F - 30.2 °F 41% 30.23 in 45.0 mi SSW 10.4 mph - N/A   Scattered Clouds
5:00 PM 51.8 °F - 32.0 °F 47% 30.23 in 45.0 mi SSW 6.9 mph - N/A   Mostly Cloudy
6:00 PM 48.2 °F - 33.8 °F 58% 30.25 in 45.0 mi South 4.6 mph - N/A   Mostly Cloudy
7:00 PM 42.8 °F 41.1 °F 35.6 °F 76% 30.26 in 25.0 mi SSE 3.5 mph - N/A   Scattered Clouds
8:00 PM 41.0 °F - 35.6 °F 81% 30.28 in 25.0 mi South 2.3 mph - N/A   Scattered Clouds
9:00 PM 37.4 °F 34.9 °F 33.8 °F 87% 30.29 in 25.0 mi South 3.5 mph - N/A   Partly Cloudy
10:00 PM 37.4 °F - 33.8 °F 87% 30.29 in 25.0 mi Calm Calm - N/A   Scattered Clouds
11:00 PM 35.6 °F - 33.8 °F 93% 30.30 in 25.0 mi Calm Calm - N/A   Scattered Clouds